Location: Diamond Heights Village
(37.7458°N, 122.4416°W)
Time: 15:19:57
(UTC+00:00)

USA 81 - Pass Details

Date: 13 June 2024
Orbit: 783 x 787 km, 85.0° (Epoch: 23 July)

Event Time Altitude Azimuth Distance (km) Brightness Sun altitude
Rises 11:59:09 0° 348° (NNW) 3,285 7.7 -8.7°
Reaches altitude 10° 12:01:37 10° 342° (NNW) 2,352 6.8 -8.3°
Maximum altitude 12:06:34 43° 272° (W) 1,093 4.5 -7.5°
Drops below altitude 10° 12:11:30 10° 202° (SSW) 2,334 6.0 -6.7°
Sets 12:13:56 0° 195° (SSW) 3,258 6.8 -6.4°
